Location: Buttermere
(51.3333°N, 1.5167°W)
Time: 07:07:07
(UTC+00:00)

ATLAS 3B R/B - Pass Details

Date: 18 September 2020
Orbit: 1016 x 1179 km, 63.8° (Epoch: 04 October)

Event Time Altitude Azimuth Distance (km) Brightness Sun altitude
Rises 21:19:47 0° 315° (NW) 3,818 6.9 -27.3°
Reaches altitude 10° 21:22:22 10° 316° (NW) 2,881 5.9 -27.6°
Maximum altitude 21:29:14 86° 47° (NE) 1,093 2.6 -28.4°
Enters shadow 21:30:03 72° 125° (SE) 1,143 2.5 -28.5°
